Regional Weather Roundup
Issued by NWS

Home | Current Version | Previous Version | Graphics & Text | Print | Product List | Glossary On
Versions: 1 2 3 4 5 6 7 8 9 10 11 12 13 14 15 16 17 18 19 20 21 22 23 24 25 26 27 28 29 30 31 32 33 34 35 36 37 38 39 40 41 42 43 44 45 46 47 48 49 50
000
ASUS45 KBOU 171810
RWRCO

WEATHER ROUNDUP FOR COLORADO
NATIONAL WEATHER SERVICE DENVER/BOULDER CO
1100 AM MST WED JAN 17 2018

NOTE: "FAIR" INDICATES FEW OR NO CLOUDS BELOW 12000 FEET WITH NO
SIGNIFICANT WEATHER AND/OR OBSTRUCTIONS TO VISIBILITY.

COZ001>005-013-030-031-171900-
...NORTHWEST COLORADO...

CITY           SKY/WX    TMP DP  RH WIND       PRES   REMARKS
CRAIG          FAIR      21   6  52 SW6       30.43F WCI  13
HAYDEN         FAIR     N/A N/A N/A E10       30.44F
MEEKER         CLOUDY    29  11  47 CALM      30.42F
RABBIT EARS PA FAIR      25  14  63 NW6       30.40S WCI  18
STEAMBOAT SPGS FAIR      10   2  68 CALM      30.43F
WALDEN         FAIR      21   3  45 SW5       30.42S WCI  15
$$

COZ006>008-011-171900-
...WEST CENTRAL VALLEYS...

CITY           SKY/WX    TMP DP  RH WIND       PRES   REMARKS
GRAND JUNCTION FAIR      35  11  36 S10       30.45F WCI  27
MONTROSE       FAIR      32  12  43 NW3       30.46F
EAGLE          FAIR      19   4  51 CALM      30.53F
RIFLE          FAIR      28   9  44 CALM      30.47F
DELTA          FAIR      31  13  48 CALM      30.47F
NUCLA          FAIR      32  14  47 N3        30.45F
$$

COZ017>023-064>068-171900-
...SOUTHWEST COLORADO...

CITY           SKY/WX    TMP DP  RH WIND       PRES   REMARKS
DURANGO        FAIR      30  21  69 CALM      30.37F
CORTEZ         FAIR      36  19  50 VRB3      30.38F
PAGOSA SPRINGS FAIR      32  18  55 CALM      30.36F
TELLURIDE      FAIR      32  -3  22 CALM      30.39F
WOLF CREEK PAS FAIR      27 -20  12 N6        30.42S WCI  20
$$

COZ009-010-012-014-032>034-037-058>063-171900-
...CENTRAL COLORADO...

CITY           SKY/WX    TMP DP  RH WIND       PRES   REMARKS
ASPEN          FAIR      27  -2  28 CALM      30.41S
BUENA VISTA    FAIR      36  -3  18 CALM      30.33F
COPPER MTN     NOT AVBL
BERTHOUD PASS  FAIR      14   3  62 NW6G20    30.39F WCI   5
COTTONWOOD PAS   N/A     41  -8  12 SE8       30.35R
GUNNISON       FLURRIES  13   4  67 CALM      30.47F
KREMMLING      FAIR      14   1  57 CALM      30.52F
LEADVILLE      FAIR      32  10  40 N10G20    30.37S WCI  24
MONARCH PASS   FAIR      25  -4  28 SW6       30.48S WCI  18
SALIDA         FAIR      35  -2  21 CALM      30.43F
SUNLIGHT       FAIR      25  12  58 CALM      30.45S
WILKERSON PASS FAIR      30 -26   8 CALM      30.40R
$$

COZ069>075-171900-
...SAN LUIS VALLEY/SANGRE DE CRISTO MOUNTAINS...

CITY           SKY/WX    TMP DP  RH WIND       PRES   REMARKS
ALAMOSA        FAIR      26  10  50 VRB5      30.37F WCI  20
DEL NORTE      FAIR      28  10  46 CALM      30.36F
LA VETA PASS   FAIR      34   1  25 NW5         N/A  WCI  30
SAGUACHE       FAIR      28   5  37 S3        30.37F
$$

COZ035-036-038>040-171900-
...NORTHERN COLORADO FRONT RANGE...

CITY           SKY/WX    TMP DP  RH WIND       PRES   REMARKS
DENVER INTL AP FAIR      38  12  34 W9        30.31R
DMNS CITY PARK NOT AVBL
AURORA         SUNNY     39   4  23 W5        30.32R
FRONT RANGE AP SUNNY     39  16  38 W9        30.32R
ERIE MUNI ARPT FAIR      38   7  28 CALM      30.37S
BOULDER MUN AP FAIR      41  18  38 CALM      30.30S
CENTENNIAL     FAIR      41   1  18 NW6       30.32R
BROOMFIELD     NOT AVBL
FORT COLLINS   FAIR      34  16  47 S3        30.31S
LONGMONT       FAIR      43  16  33 CALM      30.32F
$$

COZ041-046-047-076>085-087-088-171900-
...PIKES PEAK/PALMER DIVIDE AND SOUTHERN FOOTHILLS...

CITY           SKY/WX    TMP DP  RH WIND       PRES   REMARKS
COLO. SPRINGS  FAIR      53  -8   8 N8        30.30R
A. F. ACADEMY  FAIR      49 -13   7 N9        30.29R
SCHRIEVER AFB  FAIR      48  -6  10 NE12      30.30R
CHEYENNE MTN   FAIR      44 -10  10 N12       30.25R
ELLICOTT         N/A    N/A N/A N/A N9        30.27R
FALCON         FAIR      47 -10   9 N10       30.31S
FORT CARSON    FAIR      52 -14   6 N5        30.28R
LIMON          FAIR      48  -1  13 N9        30.29S
MONUMENT HILL  FAIR      39   0  19 NW7       30.33R
CANON CITY     FAIR      50   5  16 W10G17    30.28S
WALSENBURG     FAIR      52   1  12 CALM      30.27F
TRINIDAD       FAIR      47  12  24 CALM      30.27F
$$

COZ042>045-048>051-090-091-171900-
...NORTHEAST COLORADO...

CITY           SKY/WX    TMP DP  RH WIND       PRES   REMARKS
GREELEY ARPT   FAIR      34  15  46 SW7       30.33F WCI  28
AKRON          FAIR      30  13  49 W15       30.30R WCI  19
BURLINGTON     FAIR      40  12  32 NW7       30.30S
WRAY           FAIR      41  10  28 MISG      30.31F
YUMA           FAIR      37  10  32 W10       30.31S
STERLING       FAIR      30  14  51 S7        30.31F WCI  23
HOLYOKE        FAIR      43  12  28 NW8       30.30F
FORT MORGAN    FAIR      34  10  37 W13       30.32S WCI  25
$$

COZ086-089-092>099-171900-
...SOUTHEAST COLORADO...

CITY           SKY/WX    TMP DP  RH WIND       PRES   REMARKS
PUEBLO         FAIR      34  15  46 CALM      30.29F
LA JUNTA       FAIR      34  15  46 NW5       30.31F WCI  30
LAMAR          FAIR      31   9  39 W12       30.32F WCI  22
SPRINGFIELD      N/A     40  15  36 CALM      30.28F
$$



USA.gov is the U.S. government's official web portal to all federal, state and local government web resources and services.